Regional Weather Roundup
Issued by NWS Jackson, KY

Home | Current Version | Previous Version | Text Only | Print | Product List | Glossary Off
Versions: 1 2 3 4 5 6 7 8 9 10 11 12 13 14 15 16 17 18 19 20 21 22 23 24 25 26 27 28 29 30 31 32 33 34 35 36 37 38 39 40 41 42 43 44 45 46 47 48 49 50

000
ASUS43 KJKL 040210
RWRJKL

EAST KENTUCKY HOURLY WEATHER ROUNDUP
NATIONAL WEATHER SERVICE JACKSON KY
1000 PM EDT SUN MAY 03 2015

NOTE: "FAIR" INDICATES FEW OR NO CLOUDS BELOW 12,000 FEET WITH
NO SIGNIFICANT WEATHER AND/OR OBSTRUCTIONS TO VISIBILITY.

* THESE REPORTS ARE NOT UNDER NWS QUALITY CONTROL AND MAY NOT
  REPORT WEATHER SUCH AS PRECIPITATION AND FOG.

KYZ079-080-083-085-087-088-110-112-115-119-120-040300
...EASTERN KENTUCKY...

CITY           SKY/WX    TMP DP  RH WIND       PRES   REMARKS
JACKSON        CLEAR     71  38  29 CALM      30.14R
LONDON         MOCLDY    70  46  42 SW3       30.14R
SOMERSET*      CLEAR     61  50  67 CALM      30.14R
MONTICELLO*    CLEAR     60  51  72 CALM      30.16R
MIDDLESBORO*   PTCLDY    59  50  71 CALM      30.16R
HARLAN APT*    CLEAR     61  43  51 CALM      30.17R
HAZARD APT*    CLEAR     64  48  55 CALM      30.15R
BLACK MTN*       N/A     59  36  41 S5          N/A
PIKEVILLE APT* CLEAR     70  39  32 E3        30.15R
BIG SANDY*     CLEAR     65  45  47 CALM      30.14R
MOREHEAD APT*  CLEAR     68  43  40 CALM      30.15R
$$

KYZ035-036-041-042-044-050-067-078-099-040300
...CENTRAL KENTUCKY...

CITY           SKY/WX    TMP DP  RH WIND       PRES   REMARKS
MT STERLING*   CLEAR     61  50  67 CALM      30.14R
FLEMING/MASON* CLEAR     68  45  42 S3        30.14R
DANVILLE*      CLEAR     61  50  67 CALM      30.13R
RICHMOND*      CLEAR     66  45  45 CALM      30.12R
LEXINGTON      CLEAR     64  51  62 SE3       30.12R
FRANKFORT      PTCLDY    62  49  62 CALM      30.10R
$$

KYZ091>093-OHZ055-061-077-WVZ005-015-034-035-042-040300
...SOUTHERN OHIO/WEST VIRGINIA...

CITY           SKY/WX    TMP DP  RH WIND       PRES   REMARKS
COVINGTON      PTCLDY    65  47  52 S5        30.10R
COLUMBUS       PTCLDY    68  45  43 S5        30.10R
DAYTON         PTCLDY    67  47  48 S8        30.10R
WILMINGTON     PTCLDY    62  45  53 S3        30.11R
HUNTINGTON     CLEAR     65  44  46 E3        30.11R
CHARLESTON     CLEAR     62  41  46 CALM      30.13R
PINEVILLE*     CLEAR     54  47  78 MISG      30.22R
BECKLEY        CLEAR     58  36  43 S5        30.20R
BLUEFIELD      CLEAR     66  41  40 SE6       30.21R
$$

VAZ002-007-008-TNZ017-027-036-066-071-040300
...SOUTHWEST VIRGINIA/EAST TENNESSEE...

CITY           SKY/WX    TMP DP  RH WIND       PRES   REMARKS
WISE*          CLEAR     61  34  36 CALM      30.22R
JONESVILLE*    CLEAR     55  46  71 CALM      30.18R
ABINGDON*      PTCLDY    59  45  59 CALM      30.19R
BRISTOL        PTCLDY    59  46  62 CALM      30.17R
KNOXVILLE      PTCLDY    67  50  54 S3        30.15R
OAK RIDGE      CLEAR     65  51  60 CALM      30.16R
CROSSVILLE     CLEAR     64  47  53 CALM      30.18R
NASHVILLE      PTCLDY    67  51  56 S5        30.11R
$$

...KEY TO REMARKS...
VSB - VISIBILITY IN MILES
WCI - WIND CHILL INDEX
HX  - HEAT INDEX

$$



USA.gov is the U.S. government's official web portal to all federal, state and local government web resources and services.